Location: Strawberry
(45.6646°N, 111.9596°W)
Time: 03:07:09
(UTC+00:00)

NOAA 19 - Visible Passes

Search period start: 10 December 2022 00:00
Search period end: 20 December 2022 00:00
Orbit: 840 x 861 km, 99.1° (Epoch: 09 December)

Date Brightness Start Highest point End Pass type
(mag) Time Alt. Az. Time Alt. Az. Time Alt. Az.
10 Dec 7.2 02:11:04 14° N 02:11:04 14° N 02:11:49 10° N visible
10 Dec 8.5 14:24:23 10° ENE 14:25:14 10° E 14:26:05 10° E visible
11 Dec 7.2 01:59:00 13° N 01:59:00 13° N 01:59:40 10° N visible
12 Dec 7.2 01:46:54 12° NNE 01:46:54 12° NNE 01:47:27 10° N visible
12 Dec 7.8 03:28:54 10° NNW 03:28:54 10° NNW 03:28:58 10° NNW visible
13 Dec 7.2 01:34:49 11° NNE 01:34:49 11° NNE 01:35:09 10° NNE visible
13 Dec 7.7 03:16:49 11° NNW 03:16:49 11° NNW 03:17:03 10° NNW visible
14 Dec 7.3 01:22:43 10° NNE 01:22:43 10° NNE 01:22:44 10° NNE visible
14 Dec 7.6 03:04:43 12° NNW 03:04:43 12° NNW 03:05:07 10° NNW visible
15 Dec 7.5 02:52:37 13° N 02:52:37 13° N 02:53:08 10° N visible
16 Dec 7.4 02:40:30 13° N 02:40:30 13° N 02:41:07 10° N visible
17 Dec 7.3 02:28:23 13° N 02:28:23 13° N 02:29:03 10° N visible
18 Dec 7.3 02:16:16 13° N 02:16:16 13° N 02:16:58 10° N visible
18 Dec 8.3 14:28:36 10° ENE 14:30:23 11° E 14:32:11 10° ESE visible
19 Dec 7.2 02:04:08 13° N 02:04:08 13° N 02:04:49 10° N visible
